Overview Statistics Trail Chart Weather Telemetry Raw packets
 

This is the latest recevied weather packets stored in our database for station/object IW2NIA-3. If no packets are shown the sender has not sent any weather packets the latest 10 day(s).

<< 1 2 3 4 5 6 >>
Time Temp. Humidity Pressure Rain* Wind** Luminosity Snow
1788621509 31.67° C 53% 1015.7 hPa 0 mm - - -
1788620607 31.67° C 52% 1015.7 hPa 0 mm - - -
1788619707 31.67° C 52% 1015.8 hPa 0 mm - - -
1788618827 32.22° C 49% 1015.7 hPa 0 mm - - -
1788617913 32.22° C 49% 1015.8 hPa 0 mm - - -
1788617025 32.22° C 50% 1015.8 hPa 0 mm - - -
1788616125 32.22° C 48% 1015.8 hPa 0 mm - - -
1788615209 32.22° C 49% 1016.1 hPa 0 mm - - -
1788614311 32.22° C 48% 1016.2 hPa 0 mm - - -
1788613426 32.22° C 54% 1016.3 hPa 0 mm - - -
1788612521 31.67° C 53% 1016.4 hPa 0 mm - - -
1788611619 31.11° C 52% 1016.5 hPa 0 mm - - -
1788610718 31.11° C 55% 1016.6 hPa 0 mm - - -
1788609813 31.11° C 52% 1016.7 hPa 0 mm - - -
1788608911 30.56° C 54% 1017 hPa 0 mm - - -
1788608020 30° C 56% 1016.9 hPa 0 mm - - -
1788607122 30° C 54% 1017.1 hPa 0 mm - - -
1788606217 30° C 52% 1017.2 hPa 0 mm - - -
1788605308 29.44° C 54% 1017 hPa 0 mm - - -
1788604422 28.89° C 55% 1016.9 hPa 0 mm - - -
1788603511 28.33° C 57% 1017 hPa 0 mm - - -
1788602619 27.78° C 58% 1017.1 hPa 0 mm - - -
1788601720 27.78° C 61% 1017.2 hPa 0 mm - - -
1788600816 27.22° C 62% 1017.2 hPa 0 mm - - -
1788599911 26.67° C 66% 1017.1 hPa 0 mm - - -

* Rain latest hour (hover to see other rain measurements)
** Current wind speed in m/s (hover to see current wind gust speed)